Whippany, NJ

12:33 PM EDT on July 23, 2016 (GMT -0400)
Morristown Municipal

Weather History for KMMU - July, 2013

Change the Weather History Date:

Monday, July 29, 2013

  Actual Average Record
Temperature  
Mean Temperature 73 °F -  
Max Temperature 82 °F 84 °F 98 °F (1949)
Min Temperature 64 °F 62 °F 47 °F (1937)
Cooling Degree Days 8    
Growing Degree Days 23 (Base 50)    
Moisture  
Dew Point 63 °F    
Average Humidity 77    
Maximum Humidity 94    
Minimum Humidity 32    
Precipitation  
Precipitation 0.00 in - - ()
Sea Level Pressure  
Sea Level Pressure 30.02 in    
Wind  
Wind Speed 1 mph (WNW)    
Max Wind Speed 13 mph    
Max Gust Speed 18 mph    
Visibility 7 miles    
Events Rain    
Averages and records for this station are not official NWS values.
T = Trace of Precipitation, MM = Missing Value Source: NWS Daily Summary

Daily Weather History Graph

Daily Weather History Graph

Search for Another Location

Airport or City:

Trip Planner

Search our weather history database for the weather conditions in past years. The results will help you decide how hot, cold, wet, or windy it might be!

Date:

Astronomy

Jul. 29, 2013 Rise Set
Actual Time 5:51 AM EDT 8:16 PM EDT
Civil Twilight 5:20 AM EDT 8:47 PM EDT
Nautical Twilight 4:41 AM EDT 9:25 PM EDT
Astronomical Twilight 3:59 AM EDT 10:08 PM EDT
Moon No Moon Rise 1:34 PM EDT (7/29)
Length of Visible Light 15h 26m
Length of Day
14h 24m
Waning Gibbous, 51% of the Moon is Illuminated
Jul 29
Waning Gibbous
Jul 29
Last Quarter
Aug 6
New
Aug 14
First Quarter
Aug 20
Full

Hourly Weather History & Observations

Time (EDT) Temp. Heat Index Dew Point Humidity Pressure Visibility Wind Dir Wind Speed Gust Speed Precip Events Conditions
12:15 AM 71.6 °F - 68.0 °F 88% 29.98 in 7.0 mi Calm Calm - N/A Rain Rain
12:35 AM 69.8 °F - 68.0 °F 94% 29.98 in 4.0 mi Calm Calm - N/A Rain Rain
12:55 AM 69.8 °F - 68.0 °F 94% 29.98 in 4.0 mi Calm Calm - N/A Rain Rain
1:15 AM 69.8 °F - 66.2 °F 88% 29.96 in 1.5 mi Calm Calm - N/A Rain Rain
1:35 AM 69.8 °F - 68.0 °F 94% 29.97 in 4.0 mi Calm Calm - N/A Rain Rain
1:55 AM 69.8 °F - 66.2 °F 88% 29.97 in 1.0 mi Calm Calm - N/A Rain Light Rain
2:15 AM 69.8 °F - 66.2 °F 88% 29.99 in 1.8 mi West 3.5 mph - N/A Rain Rain
2:35 AM 69.8 °F - 66.2 °F 88% 29.97 in 3.0 mi Calm Calm - N/A Rain Rain
2:55 AM 69.8 °F - 66.2 °F 88% 29.99 in 4.0 mi Calm Calm - N/A Rain Rain
3:15 AM 69.8 °F - 68.0 °F 94% 29.99 in 5.0 mi Calm Calm - N/A Rain Rain
3:55 AM 69.8 °F - 66.2 °F 88% 29.98 in 5.0 mi Calm Calm - N/A   Clear
4:15 AM 69.8 °F - 68.0 °F 94% 29.98 in 7.0 mi Calm Calm - N/A Rain Rain
4:35 AM 68.0 °F - 66.2 °F 94% 29.98 in 5.0 mi Calm Calm - N/A Rain Heavy Rain
4:55 AM 68.0 °F - 64.4 °F 88% 29.98 in 1.8 mi Calm Calm - N/A Rain Rain
5:15 AM 66.2 °F - 64.4 °F 94% 29.98 in 1.8 mi Calm Calm - N/A Rain Rain
5:35 AM 66.2 °F - 64.4 °F 94% 29.98 in 7.0 mi Calm Calm - N/A Rain Rain
5:55 AM 66.2 °F - 64.4 °F 94% 29.98 in 0.8 mi Calm Calm - N/A Rain Rain
6:15 AM 66.2 °F - 64.4 °F 94% 29.99 in 0.5 mi Calm Calm - N/A Rain Rain
6:35 AM 68.0 °F - 64.4 °F 88% 30.00 in 7.0 mi Calm Calm - N/A Rain Rain
6:45 AM 66.2 °F - 64.4 °F 94% 30.00 in 7.0 mi Calm Calm - N/A   Partly Cloudy
7:45 AM 68.0 °F - 64.4 °F 88% 30.02 in 15.0 mi Calm Calm - N/A   Partly Cloudy
8:45 AM 71.6 °F - 66.2 °F 83% 30.04 in 15.0 mi Calm Calm - N/A   Partly Cloudy
9:45 AM 75.2 °F - 66.2 °F 73% 30.04 in 15.0 mi NE 5.8 mph - N/A   Scattered Clouds
10:45 AM 77.0 °F - 66.2 °F 69% 30.05 in 10.0 mi North 3.5 mph - N/A   Scattered Clouds
11:45 AM 77.0 °F - 62.6 °F 61% 30.04 in 15.0 mi Calm Calm - N/A   Scattered Clouds
12:45 PM 78.8 °F - 62.6 °F 57% 30.03 in 10.0 mi West 4.6 mph - N/A   Mostly Cloudy
1:45 PM 82.4 °F 83.4 °F 62.6 °F 51% 30.03 in 10.0 mi WNW 10.4 mph - N/A   Mostly Cloudy
2:45 PM 82.4 °F 83.4 °F 62.6 °F 51% 30.03 in 10.0 mi West 11.5 mph - N/A   Scattered Clouds
3:45 PM 82.4 °F 82.9 °F 60.8 °F 48% 30.03 in 10.0 mi West 9.2 mph - N/A   Scattered Clouds
4:45 PM 82.4 °F - 50.0 °F 32% 30.03 in 10.0 mi West 9.2 mph 17.3 mph N/A   Partly Cloudy
5:45 PM 80.6 °F 80.3 °F 53.6 °F 39% 30.03 in 10.0 mi West 12.7 mph 18.4 mph N/A   Partly Cloudy
6:45 PM 78.8 °F - 53.6 °F 42% 30.04 in 10.0 mi WNW 11.5 mph 16.1 mph N/A   Partly Cloudy
7:45 PM 75.2 °F - 57.2 °F 53% 30.06 in 10.0 mi West 3.5 mph - N/A   Partly Cloudy
8:45 PM 69.8 °F - 57.2 °F 64% 30.08 in 10.0 mi Calm Calm - N/A   Clear
9:45 PM 68.0 °F - 57.2 °F 68% 30.10 in 10.0 mi Calm Calm - N/A   Clear
10:55 PM 68.0 °F - 55.4 °F 64% 30.11 in 10.0 mi West 3.5 mph - N/A   Clear
11:15 PM 68.0 °F - 55.4 °F 64% 30.11 in 10.0 mi Calm Calm - N/A   Clear
11:35 PM 64.4 °F - 59.0 °F 83% 30.11 in 10.0 mi Calm Calm - N/A   Clear
11:55 PM 66.2 °F - 55.4 °F 68% 30.12 in 10.0 mi WNW 3.5 mph - N/A   Clear